Tracking 27079 objects as of 23-Mar-2023
HD Live streaming from Space Station
objects crossing your sky now

STARLINK-4341

Track STARLINK-4341 now!
10-day predictions
STARLINK-4341 is classified as:


NORAD ID: 53052
Int'l Code: 2022-077K
Perigee: 568.4 km
Apogee: 571.9 km
Inclination: 97.7 °
Period: 95.9 minutes
Semi major axis: 6941 km
RCS: Unknown
Launch date: July 11, 2022
Source: United States (US)
Launch site: AIR FORCE WESTERN TEST RANGE (AFWTR)
Your satellite tracking list
Your tracking list is empty




NASA's NSSDC Master Catalog

Two Line Element Set (TLE):
1 53052U 22077K   23082.46379226  .00000611  00000-0  52197-4 0  9993
2 53052  97.6566 264.7640 0002515 222.9862 137.1166 15.01265844 39125
Source of the keplerian elements: AFSPC